Location: Cabeza de los Veneras
(40.2000°N, 5.2000°W)
Time: 01:40:04
(UTC+00:00)

Terra - Pass Details

Date: 18 April 2024
Orbit: 691 x 696 km, 98.0° (Epoch: 25 May)

Event Time Altitude Azimuth Distance (km) Brightness Sun altitude
Exits shadow 22:19:23 36° 289° (WNW) 1,107 3.1 -31.5°
Drops below altitude 10° 22:22:55 10° 331° (NNW) 2,163 5.2 -31.8°
Sets 22:25:19 0° 340° (NNW) 3,084 6.2 -32.1°
